Orbital Elements at Epoch 2459200.5 (2020-Dec-17.0) TDB
Reference: JPL 19 (heliocentric ecliptic J2000)
Element | Value | Uncertainty (1-sigma) | Units |
e | .2326672991678525 | 4.1044e-08 | |
a | 2.392660547791844 | 7.2872e-09 | au |
q | 1.835966680311641 | 9.6491e-08 | au |
i | 4.983369512471809 | 2.6899e-06 | deg |
node | 107.2296207051725 | 5.4986e-05 | deg |
peri | 243.4792596196986 | 5.5477e-05 | deg |
M | 36.27252350881716 | 6.9605e-06 | deg |
tp | 2459064.294285137516 (2020-Aug-02.79428514) | 2.6043e-05 | TDB |
period | 1351.823711371361 3.70 | 6.1758e-06 1.691e-08 | d yr |
n | .266306913373192 | 1.2166e-09 | deg/d |
Q | 2.949354415272047 | 8.9827e-09 | au |
|
| | Orbit Determination Parameters
Additional Information
|